Regional Weather Roundup
Issued by NWS Glasgow, MT

Home | Current Version | Previous Version | Text Only | Print | Product List | Glossary On
Versions: 1 2 3 4 5 6 7 8 9 10 11 12 13 14 15 16 17 18 19 20 21 22 23 24 25 26 27 28 29 30 31 32 33 34 35 36 37 38 39 40 41 42 43 44 45 46 47 48 49 50
000
ASUS45 KGGW 300115
RWRGGW
HOURLY REGIONAL WEATHER ROUNDUP FOR NORTHEAST MONTANA
NATIONAL WEATHER SERVICE GLASGOW MONTANA
700 PM MDT FRI MAY 29 2015

NOTE: "FAIR" INDICATES FEW OR NO CLOUDS BELOW 12,000 FEET WITH NO
SIGNIFICANT WEATHER AND/OR OBSTRUCTIONS TO VISISBILITY.

NORTHEAST MONTANA


CITY           SKY/WX    TMP DP  RH WIND       PRES   REMARKS
GLASGOW        SUNNY     60  33  36 SE10      30.24F
PLENTYWOOD       N/A     59  27  29 NE6         N/A
WOLF POINT     SUNNY     61  30  31 E5        30.26F
JORDAN           N/A     61  30  31 E9        30.23F
WINNETT          N/A     62  40  44 SE6G14      N/A
SIDNEY         SUNNY     61  30  31 NE6       30.28S
GLENDIVE       SUNNY     57  34  41 E8        30.27S
MALTA            N/A     61  34  36 SE5         N/A
SCOBEY           N/A     58  29  33 NE5       30.25S
OPHEIM           N/A     54  25  32 CALM      30.18F

FORT PECK REPORTS


CITY           SKY/WX    TMP DP  RH WIND       PRES   REMARKS
FORT PECK        N/A     60  42  51 S6          N/A
THE PINES        N/A     59  30  33 NE5         N/A

SOUTHEAST MONTANA


CITY           SKY/WX    TMP DP  RH WIND       PRES   REMARKS
BILLINGS       MOSUNNY   60  45  57 E10       30.20F
MILES CITY     SUNNY     62  27  26 NE6       30.24F
BAKER          SUNNY     58  29  33 CALM      30.27R
LIVINGSTON     MOSUNNY   58  46  64 E18G25    30.16F

CENTRAL MONTANA


CITY           SKY/WX    TMP DP  RH WIND       PRES   REMARKS
HAVRE          PTSUNNY   65  44  46 SE15      30.13F
LEWISTOWN      MOSUNNY   63  47  55 E12       30.16F
GREAT FALLS    MOSUNNY   65  48  54 E13       30.08F
CUT BANK       PTSUNNY   61  47  59 SE12      30.11F
HELENA         PTSUNNY   66  52  60 SE5       30.06S
BUTTE          PTSUNNY   66  42  41 VRB3      30.12F
BOZEMAN        MOSUNNY   66  50  56 SE9       30.09F

WESTERN MONTANA


CITY           SKY/WX    TMP DP  RH WIND       PRES   REMARKS
MISSOULA       CLOUDY    70  47  43 SE8       30.03R
KALISPELL      NOT AVBL

NORTH DAKOTA


CITY           SKY/WX    TMP DP  RH WIND       PRES   REMARKS
WILLISTON      SUNNY     58  31  35 N6        30.28S
DICKINSON      SUNNY     54  35  48 N8        30.26S
MINOT          SUNNY     55  31  39 N13       30.28R
BISMARCK       SUNNY     56  34  43 N13       30.27R

SOUTHERN SASKATCHEWAN


CITY           SKY/WX    TMP DP  RH WIND       PRES   REMARKS
REGINA         PTSUNNY   54  27  35 NE9       30.32R
ESTEVAN        NOT AVBL
SWIFT CURRENT  CLOUDY    55  27  33 E10       30.25F



USA.gov is the U.S. government's official web portal to all federal, state and local government web resources and services.